Location: ActonStarParty
(42.4766°N, 71.4538°W)
Time: 20:33:45
(UTC-05:00)

Daily predictions for brighter satellites

Satellite Brightness Start Highest point End
(mag) Time Altitude Azimuth Time Altitude Azimuth Time Altitude Azimuth
Cosmos 1725 Rocket 4.0 16:38:07 10° S 16:44:21 71° E 16:50:36 10° NNE
Meteor 2-10 Rocket 3.9 16:40:36 10° SSW 16:45:48 75° W 16:51:17 10° N
Cosmos 1763 Rocket 3.7 16:43:24 10° N 16:48:30 50° ENE 16:53:29 10° SE
Cosmos 2082 Rocket 3.2 16:45:02 10° N 16:49:38 24° NE 16:54:11 10° ESE
CSL-04 Rocket 3.6 16:44:27 10° SSE 16:49:40 64° ENE 16:54:58 10° N
CZ-2C R/B 3.1 16:46:24 10° S 16:51:21 64° W 16:56:27 10° NNW
Cosmos 1862 4.5 16:49:38 10° NNW 16:53:31 48° W 16:57:24 10° SSW
SJ-12 4.3 16:53:51 10° S 16:57:59 73° WSW 17:02:10 10° NNW
Meteor 2-12 Rocket 4.4 16:53:44 10° S 16:59:49 82° E 17:05:55 10° N
Cosmos 1340 3.2 16:56:15 10° SSW 16:59:59 61° WNW 17:03:44 10° N
COSMO-SKYMED 1 3.9 16:56:58 10° NE 17:00:15 21° E 17:03:30 10° SE
YAOGAN 1 3.2 16:57:32 10° SE 17:01:25 33° ENE 17:05:18 10° N
Tsikada Rocket 4.0 16:56:44 10° N 17:02:56 90° E 17:09:07 10° S
GENESIS II 4.4 16:59:10 10° NW 17:03:06 77° WSW 17:06:59 10° SSE
Cosmos 1814 Rocket 4.0 16:57:48 10° NNW 17:03:11 75° ENE 17:08:32 10° SSE
Cosmos 1782 3.9 17:00:44 10° SE 17:03:58 24° E 17:07:14 10° NE
BREEZE-M DEB (TANK) 3.1 17:04:49 10° NW 17:06:33 20° NNE 17:08:36 12° ENE
Cosmos 2346 Rocket 4.4 17:01:06 10° N 17:07:14 71° E 17:13:25 10° SSE
BREEZE M DEB (TANK) 4.5 17:05:52 10° WNW 17:08:32 19° SW 17:10:20 10° S
ERS-2 2.9 17:08:43 10° SE 17:11:59 30° ENE 17:15:14 10° N
SL-27 R/B 2.9 17:08:58 10° N 17:12:04 34° ENE 17:15:09 10° SE
Cosmos 405 Rocket 4.4 17:10:23 10° ESE 17:12:19 14° E 17:12:32 14° E
Cosmos 44 Rocket 4.4 17:09:04 10° N 17:12:59 23° NE 17:16:17 13° E
USA 234 4.1 17:08:13 11° ENE 17:13:48 34° SE 17:19:34 10° S
Cosmos 540 Rocket 4.1 17:10:22 10° N 17:15:06 34° ENE 17:19:46 10° SE
Lacrosse 5 3.7 17:12:38 10° WNW 17:16:19 20° NNW 17:20:00 10° NNE
Cosmos 2221 Rocket 4.5 17:13:42 10° SSE 17:17:24 27° E 17:21:07 10° NNE
Ariane Rocket 3.1 17:12:34 10° SSE 17:17:40 81° WSW 17:22:46 10° NNW
Cosmos 1844 Rocket 3.9 17:12:28 10° SW 17:17:45 41° WNW 17:23:04 10° NNE
CZ-2C R/B 3.7 17:16:30 10° NNE 17:20:58 63° ESE 17:25:27 10° S
Cosmos 304 Rocket 3.8 17:16:08 10° NNW 17:20:59 86° WSW 17:25:45 10° SSE
MTI 4.4 17:18:36 11° NNE 17:21:28 35° E 17:24:28 10° SSE
Cosmos 1703 Rocket 3.8 17:18:15 10° SSE 17:22:34 49° E 17:26:52 10° NNE
Cosmos 841 Rocket 3.4 17:18:46 10° NNW 17:24:04 77° ENE 17:29:20 10° SSE
Cosmos 1486 Rocket 4.0 17:29:15 10° SSW 17:34:27 90° WNW 17:39:44 10° NNE
Okean 2 Rocket 3.7 17:31:37 10° N 17:35:47 35° ENE 17:39:55 10° SE
FENGYUN 3A 4.0 17:30:50 10° SE 17:35:50 40° ENE 17:40:52 10° N
MONITOR-E 4.5 17:33:33 10° SE 17:36:27 41° ENE 17:39:21 10° N
Cosmos 1633 2.5 17:34:17 10° N 17:37:56 60° E 17:41:33 10° SSE
Cosmos 1464 Rocket 4.1 17:33:08 10° SSE 17:38:59 51° E 17:44:55 10° NNE
Meteor 1-14 Rocket 4.5 17:33:34 10° NNW 17:39:13 72° W 17:44:44 10° S
Cosmos 44 3.7 17:37:26 10° NNW 17:41:49 39° NE 17:44:23 22° ESE
BREEZE-M DEB (TANK) 4.0 17:43:32 10° WNW 17:45:41 29° N 17:46:38 24° NNE
Cosmos 1833 Rocket 2.6 17:40:27 10° NNW 17:46:03 63° ENE 17:51:37 10° SE
Cosmos 1908 Rocket 3.9 17:42:58 10° NNW 17:47:17 65° W 17:51:33 10° S
SKYMED 2 3.5 17:44:11 10° NNE 17:48:32 68° ESE 17:52:50 10° S
Cosmos 2297 3.7 17:44:25 10° S 17:50:01 60° ESE 17:54:15 18° NE
BREEZE-M DEB (TANK) 2.7 17:48:28 10° NW 17:50:24 38° NNE 17:50:24 38° NNE
Cosmos 1354 Rocket 3.9 17:46:29 10° S 17:51:43 67° ESE 17:55:56 16° NNE
SPOT 3 Rocket 3.5 17:48:59 10° SSE 17:54:09 68° ENE 17:59:21 10° N
ALOS 2.2 17:50:07 10° SSE 17:54:42 58° ENE 17:59:18 10° N
Cosmos 2278 Rocket 2.9 17:49:13 10° SW 17:54:45 54° WNW 18:00:21 10° NNE
CENTAUR R/B 4.0 17:49:12 10° W 17:54:48 33° NW 18:01:07 10° NNE
Meteor 1-11 Rocket 4.0 17:51:34 10° N 17:57:12 45° ENE 18:02:41 10° SSE
BREEZE-M DEB (TANK) 1.8 17:56:42 10° WSW 17:58:48 84° SE 17:58:53 80° E
Sich 1 Rocket 4.4 17:59:46 10° NNW 18:04:05 52° W 18:08:24 10° S
COSMOS 2455 4.2 17:58:51 10° WSW 18:04:16 34° NW 18:09:44 10° NNE
CZ-4 R/B 3.4 18:04:58 10° SSW 18:08:19 28° W 18:11:40 10° NW
NOAA 12 4.0 18:09:19 10° SSE 18:14:39 89° ENE 18:19:59 10° NNW
Cosmos 1441 Rocket 3.5 18:10:55 10° S 18:14:11 53° SE 18:14:11 53° SE
Cosmos 1606 3.8 18:11:21 10° SSW 18:14:57 42° WNW 18:18:35 10° N
Okean 1-7 3.5 18:11:11 10° SSW 18:15:31 62° W 18:19:54 10° N
BREEZE-M R/B 3.6 18:16:07 10° WNW 18:19:00 45° SSW 18:20:54 27° SSE
CZ-4C R/B 2.9 18:14:00 10° NNW 18:20:59 57° NE 18:24:02 36° ESE
Cosmos 1513 Rocket 4.5 18:15:15 10° S 18:21:35 86° W 18:27:50 10° N
EO 1 Del DPAF 4.2 18:19:24 17° N 18:22:05 47° WNW 18:25:45 10° SSW
Thor Agena Rocket 4.0 18:27:31 43° SE 18:27:31 43° SE 18:31:21 10° S
CZ-3A R/B 4.1 18:20:14 10° NW 18:33:23 65° SW 18:38:16 15° SSE
Cosmos 2082 Rocket 2.8 18:28:31 10° NNW 18:34:05 56° WSW 18:39:34 10° S
COSMO-SKYMED 1 4.0 18:32:31 10° N 18:36:30 36° WNW 18:40:28 10° SW
Cosmos 405 Rocket 4.1 18:44:27 10° SW 18:47:47 37° W 18:47:47 37° W
FengYun 1-2 T 4.2 18:47:43 29° S 18:50:42 84° WSW 18:56:18 10° NNW
Nadezhda 4 Rocket 4.0 18:45:13 10° N 18:51:21 78° W 18:57:26 10° S
Cosmos 44 Rocket 3.8 18:50:02 10° NW 18:54:49 56° WSW 18:55:05 55° SW
USA 234 3.3 18:55:35 54° NNE 18:57:06 72° NW 19:03:36 10° WSW
Timation 2 Rocket 4.0 18:52:17 10° NNW 18:59:07 89° WSW 19:00:01 69° SSE
Cosmos 968 Rocket 3.8 18:54:07 10° SSW 18:58:25 60° SW 18:58:25 60° SW
Lacrosse 5 4.1 18:57:57 10° NNW 18:59:43 15° NNW 18:59:43 15° NNW
Meteor 1-27 Rocket 4.4 18:56:10 10° SSW 19:01:57 55° WNW 19:06:37 16° N
Cosmos 1092 Rocket 4.1 19:02:13 10° N 19:07:23 64° NNW 19:07:23 64° NNW
CZ-4C R/B 4.0 20:02:51 10° NW 20:09:18 38° WSW 20:09:18 38° WSW
